User: anonymous   Login
Location: Honolulu
(21.3069°N, 157.8583°W)
Time: 06:10:53
(UTC-10:00)
Language:

Hubble Space Telescope - Orbit

View from above orbital plane
View from above orbital plane
View from above satellite
View from above satellite

Ground track
Ground track

The orbit is defined by the following mean orbital elements,

1 20580U          26017.31546323 +.00000000 +00000-0 +23622-3 0 00009
2 20580  28.4678  30.2374 0001747 254.1050 105.9352 15.28565513    03
Epoch (UTC): 17 January 2026 07:34:16
Eccentricity: 0.0001747
inclination: 28.4678°
perigee height: 479 km
apogee height: 481 km
right ascension of ascending node: 30.2374°
argument of perigee: 254.1050°
revolutions per day: 15.28565513
mean anomaly at epoch: 105.9352°

The dashed part of the orbit path shows where the satellite is in the earth's shadow,  

DLR